Voltar ao catálogo

COSMOS 946

AtivoNavegaçãoLEO
NORAD 10292·PAYLOAD·🇷🇺 Russia

Lançado Aug 24, 1977 de Plesetsk Cosmodrome

Loading…

Próximas Passagens (próximas 24 horas)

TLE

AtualizadoSource: Space-Track

Época: Sep 14, 2026, 11:12 UTC

1 10292U 77079H   26257.46695444 -.00000028  00000-0 -85311-4 0  9992
2 10292  74.0224  68.7690 0031114 255.3417 132.7800 12.44921374210010

Acompanhe COSMOS 946 em tempo real com AllMySat

Download on the App Store